Garrison, ND

3:39 AM CDT on May 27, 2017 (GMT -0500)
Garrison

Weather History for KN60 - January, 2014

Change the Weather History Date:

Tuesday, January 28, 2014

  Actual Average Record
Temperature  
Mean Temperature -3 °F -  
Max Temperature 8 °F - 38 °F (2016)
Min Temperature -15 °F - -15 °F (2014)
Degree Days  
Heating Degree Days 68    
Month to date heating degree days 1472  
Cooling Degree Days 0    
Moisture  
Dew Point -11 °F    
Average Humidity 70    
Maximum Humidity 78    
Minimum Humidity 62    
Precipitation  
Precipitation 0.00 in - 0.00 in (2017)
Month to date precipitation 0.61  
Year to date precipitation 0.61  
Sea Level Pressure  
Sea Level Pressure 30.31 in    
Wind  
Wind Speed 12 mph (West)    
Max Wind Speed 17 mph    
Max Gust Speed 22 mph    
T = Trace of Precipitation, MM = Missing Value Source: NWS Daily Summary

Daily Weather History Graph

Daily Weather History Graph

Search for Another Location

Airport or City:

Trip Planner

Search our weather history database for the weather conditions in past years. The results will help you decide how hot, cold, wet, or windy it might be!

Date:

Astronomy

Jan. 28, 2014 Rise Set
Actual Time 8:17 AM CST 5:40 PM CST
Civil Twilight 7:43 AM CST 6:14 PM CST
Nautical Twilight 7:06 AM CST 6:51 PM CST
Astronomical Twilight 6:30 AM CST 7:27 PM CST
Moon 6:03 AM CST (1/28) 3:30 PM CST (1/28)
Length of Visible Light 10h 30m
Length of Day
9h 23m
Waning Crescent, 7% of the Moon is Illuminated
Jan 28
Waning Crescent
Jan 30
New
Feb 6
First Quarter
Feb 14
Full
Feb 22
Last Quarter

Hourly Weather History & Observations

Time (CST) Temp. Windchill Dew Point Humidity Pressure Visibility Wind Dir Wind Speed Gust Speed Precip Events Conditions
12:52 AM -11.9 °F -32.0 °F -18.9 °F 71% 30.51 in - WNW 11.5 mph - N/A   Unknown
1:52 AM -13.0 °F -34.3 °F -18.9 °F 75% 30.51 in - WNW 12.7 mph - N/A   Unknown
2:52 AM -13.0 °F -28.6 °F -18.9 °F 75% 30.51 in - WNW 6.9 mph - N/A   Unknown
3:52 AM -13.0 °F -32.4 °F -18.9 °F 75% 30.49 in - WNW 10.4 mph - N/A   Unknown
4:52 AM -13.0 °F -31.3 °F -18.9 °F 75% 30.47 in - WNW 9.2 mph - N/A   Unknown
5:52 AM -13.0 °F -34.3 °F -20.0 °F 71% 30.45 in - WNW 12.7 mph - N/A   Unknown
6:52 AM -11.9 °F -27.3 °F -18.0 °F 74% 30.44 in - WNW 6.9 mph - N/A   Unknown
7:52 AM -11.0 °F -30.9 °F -17.0 °F 75% 30.43 in - WNW 11.5 mph - N/A   Unknown
8:52 AM -9.0 °F -28.4 °F -16.1 °F 71% 30.41 in - West 11.5 mph - N/A   Unknown
9:52 AM -6.0 °F -25.5 °F -14.1 °F 68% 30.40 in - WNW 12.7 mph - N/A   Unknown
10:52 AM -4.0 °F -24.5 °F -11.9 °F 69% 30.38 in - WNW 15.0 mph - N/A   Unknown
11:52 AM -0.9 °F -21.9 °F -9.9 °F 66% 30.36 in - WNW 17.3 mph - N/A   Unknown
12:52 PM 1.0 °F -18.0 °F -9.0 °F 63% 30.33 in - West 15.0 mph - N/A   Unknown
1:52 PM 3.0 °F -14.1 °F -7.1 °F 63% 30.30 in - West 12.7 mph - N/A   Unknown
2:52 PM 5.0 °F -10.8 °F -5.1 °F 63% 30.26 in - West 11.5 mph - N/A   Unknown
3:52 PM 8.1 °F -4.3 °F -2.9 °F 61% 30.24 in - West 8.1 mph - N/A   Unknown
4:52 PM 7.0 °F -4.5 °F -2.0 °F 67% 30.22 in - West 6.9 mph - N/A   Unknown
5:52 PM 3.0 °F -4.4 °F -4.0 °F 73% 30.20 in - SW 3.5 mph - N/A   Unknown
6:52 PM -0.0 °F - -6.0 °F 76% 30.17 in - Calm Calm - N/A   Unknown
7:52 PM 1.0 °F -6.7 °F -5.1 °F 75% 30.13 in - SW 3.5 mph - N/A   Unknown
8:52 PM -0.9 °F -12.7 °F -7.1 °F 75% 30.10 in - SSW 5.8 mph - N/A   Unknown
9:52 PM -0.9 °F -11.0 °F -7.1 °F 75% 30.06 in - South 4.6 mph - N/A   Unknown
10:52 PM 1.9 °F -7.6 °F -4.0 °F 76% 30.02 in - South 4.6 mph - N/A   Unknown
11:52 PM 1.9 °F -7.6 °F -4.0 °F 76% 29.97 in - South 4.6 mph - N/A   Unknown